User: anonymous   Login
Location: Corte Bragagnani
(45.3000°N, 11.1000°E)
Time: 08:41:18
(UTC+00:00)
Language:

Cosmos 2181 Rocket - Orbit

View from above orbital plane
View from above orbital plane
View from above satellite
View from above satellite

Ground track
Ground track

The orbit data is extracted from the following two-line orbital elements,

1 21903U 92012B   21209.87052097  .00000071  00000-0  58518-4 0  9990
2 21903  82.9385 150.6085 0041649 222.9555 191.1817 13.74526778473733
Epoch (UTC): 28 July 2021 20:53:33
Eccentricity: 0.0041649
inclination: 82.9385°
perigee height: 953 km
apogee height: 1014 km
right ascension of ascending node: 150.6085°
argument of perigee: 222.9555°
revolutions per day: 13.74526778
mean anomaly at epoch: 191.1817°
orbit number at epoch: 47373

The dashed part of the orbit path shows where the satellite is in the earth's shadow,  

DLR